Flag for U.S.A. Weather past 2 weeks in Pensacola, Florida, U.S.A.

Now
88 °F

Passing clouds.


Feels Like: 95 °F
Forecast: 77 / 90 °F
Wind: 12 mph from West

Location: Pensacola Regional Airport

Current Time: Jul 4, 2015 at 6:37:10 PM

Latest Report: Jul 4, 2015 at 5:53 PM


Visibility: 10 mi

Pressure: 30.04 "Hg

Humidity: 59%

Dew point: 72 °F

Location of PensacolaLocation

Historic Weather in Pensacola — Graph

°F

Pensacola temperature yesterday

Maximum temperature yesterday: 92 °F (at 1:53 PM)
Minimum temperature yesterday: 79 °F (at 12:53 AM)
Average temperature yesterday: 84 °F

Past Weeks' High & Low Weather Summary

 TemperatureHumidityPressure
High93 °F (Jun 20, 1:53 PM)100% (Jun 26, 6:53 AM)30.20 "Hg (Jun 26, 6:53 AM)
Low73 °F (Jun 25, 3:53 AM)46% (Jun 20, 1:53 PM)29.93 "Hg (Jun 28, 3:53 AM)
Average82 °F75%30.05 "Hg
* Reported Jun 19 4:53 PM — Jul 4 4:53 PM, Pensacola, Weather by CustomWeather, © 2015

Note: Actual official high and low records may vary slightly from our data, if they occured in-between our weather recording intervals... More about our weather records

Advertising

Pensacola weather history for previous 24 hours

 ConditionsComfort  
Time TempWeatherWind HumidityBarometerVisibility
4:53 PM
Sat, Jul 4
88 °FPassing clouds.17 mph63%30.06 "Hg10 mi
3:53 PM88 °FPassing clouds.12 mph61%30.02 "Hg10 mi
2:53 PM88 °FPassing clouds.17 mph65%30.03 "Hg10 mi
1:53 PM88 °FScattered clouds.16 mph65%30.04 "Hg10 mi
12:53 PM85 °FPartly sunny.8 mph70%30.06 "Hg10 mi
11:53 AM80 °FThunderstorms. Passing clouds.8 mph74%30.09 "Hg10 mi
11:02 AM85 °FThunderstorms. Scattered clouds.12 mph70%30.09 "Hg10 mi
10:53 AM85 °FPassing clouds.12 mph68%30.09 "Hg10 mi
9:59 AM85 °FThunderstorms. Scattered clouds.13 mph70%30.09 "Hg10 mi
8:53 AM84 °FPassing clouds.9 mph74%30.09 "Hg10 mi
7:53 AM82 °FSunny.6 mph82%30.08 "Hg10 mi
6:53 AM80 °FSunny.6 mph87%30.06 "Hg10 mi
5:53 AM79 °FSunny.7 mph90%30.04 "Hg10 mi
4:53 AM81 °FPassing clouds.8 mph82%30.03 "Hg10 mi
3:53 AM80 °FClear.7 mph87%30.02 "Hg10 mi
2:53 AM80 °FClear.7 mph87%30.03 "Hg10 mi
1:53 AM81 °FClear.8 mph85%30.04 "Hg10 mi
12:53 AM82 °FPassing clouds.7 mph82%30.05 "Hg10 mi
11:53 PM
Fri, Jul 3
82 °FClear.10 mph82%30.05 "Hg10 mi
10:53 PM82 °FClear.12 mph82%30.06 "Hg10 mi
9:53 PM82 °FClear.12 mph82%30.03 "Hg10 mi
8:53 PM82 °FClear.10 mph82%30.02 "Hg10 mi
7:53 PM83 °FSunny.12 mph77%30.01 "Hg10 mi
6:53 PM84 °FSunny.13 mph72%30.01 "Hg10 mi
Weather by CustomWeather, © 2015

See weather overviewHow to use our weather pages